Location: Piotrkow Trybunalski
(51.4000°N, 19.6830°E)
Time: 01:54:44
(UTC+02:00)

STRAND 1 - Pass Details

Date: 30 March 2023
Orbit: 767 x 779 km, 98.4° (Epoch: 06 June)

Event Time Altitude Azimuth Distance (km) Brightness Sun altitude
Rises 04:40:18 0° 112° (ESE) 3,250 ? -16.0°
Reaches altitude 10° 04:43:21 10° 93° (E) 2,325 ? -15.5°
Maximum altitude 04:46:34 17° 54° (NE) 1,879 ? -15.1°
Drops below altitude 10° 04:49:48 10° 14° (NNE) 2,329 ? -14.6°
Sets 04:52:50 0° 356° (N) 3,259 ? -14.2°
